User: anonymous
Location: Trois-Rivi�res
(46.3500°N, 72.5500°W)
Time: 13:12:22
(UTC-04:00)
Language:

Cosmos 1544 - Orbit

View from above orbital plane
View from above orbital plane
View from above satellite
View from above satellite

Ground track
Ground track

The orbit data is extracted from the following two-line orbital elements,

1 14819U 84027A   14206.48098076  .00002401  00000-0  11844-3 0  9773
2 14819 082.4901 005.6287 0018621 143.3310 269.4488 15.17297605654852
Epoch (UTC): 25 July 2014 11:32:36
Eccentricity: 0.0018621
inclination: 82.4901°
perigee height: 501 km
apogee height: 527 km
right ascension of ascending node: 5.6287°
argument of perigee: 143.3310°
revolutions per day: 15.17297605
mean anomaly at epoch: 269.4488°
orbit number at epoch: 65485

The dashed part of the orbit path shows where the satellite is in the earth's shadow,  

DLR